sat.trackr.live / text

‹ back to catalog

STARLINK-2150

NORAD 47739 · 2021-017T

PAYLOAD ACTIVE UNKNOWN

§ Identity

Operator
Country
US
Launch date
2021-03-04
Launch site
AFETR
Launch vehicle
Mass (kg)
RCS (m²)

Purposes: comms

External: N2YO · Heavens-Above · Gunter

§ Orbital elements

Epoch: 2026-09-15T20:30:38.395584Z

Period
94.01 min
Inclination
53.1631°
Eccentricity
0.0000963
Mean motion
15.31723316 rev/d
Perigee alt
470.0 km
Apogee alt
471.3 km
Semi-major
6,848.8 km
B*
3.8469e-4
RAAN
54.2230°
Arg perigee
91.7436°
Mean anomaly
268.3676°
Rev number
30,682

§ Raw data

STARLINK-21501 47739U 21017T   26258.85461106  .00011600  00000+0  38469-3 0  99952 47739  53.1631  54.2230 0000963  91.7436 268.3676 15.31723316306824

JSON: /api/v1/satellites/47739 · /tle

For live sub-satellite position, see the globe view (requires WebGL).

§ Visibility from observer

Set your observer location to see the next 7 days of passes ≥ 10°. The values pass through the URL so the page stays shareable.

No JS? Fill the form by hand. The geolocation button needs JavaScript.